Location: ??????
(55.6361°N, 38.0803°E)
Time: 01:22:25
(UTC+00:00)

Meteor 1-5 Rocket - Pass Details

Date: 30 March 2020
Orbit: 788 x 916 km, 81.2° (Epoch: 26 May)

Event Time Altitude Azimuth Distance (km) Brightness Sun altitude
Rises 00:28:18 0° 343° (NNW) 3,539 7.8 -20.4°
Reaches altitude 10° 00:30:51 10° 339° (NNW) 2,580 7.0 -20.2°
Maximum altitude 00:36:31 52° 265° (W) 1,085 4.4 -19.6°
Enters shadow 00:38:49 33° 208° (SSW) 1,433 4.9 -19.3°
